Date,TemperatureHighF,TemperatureAvgF,TemperatureLowF,DewpointHighF,DewpointAvgF,DewpointLowF,HumidityHigh,HumidityAvg,HumidityLow,PressureMaxIn,PressureMinIn,WindSpeedMaxMPH,WindSpeedAvgMPH,GustSpeedMaxMPH,PrecipitationSumIn
2013-5-1,57,38,24,22,18,11,74,48,18,30.21,29.78,20,6,20,0.00
2013-5-2,63,42,24,28,20,13,73,45,18,30.28,30.07,11,3,11,0.00
2013-5-3,63,43,24,30,21,12,82,47,16,30.08,29.85,11,4,11,0.00
2013-5-4,62,46,28,32,24,16,83,47,18,29.95,29.87,16,5,16,0.00
2013-5-5,72,50,32,34,26,17,75,44,14,29.90,29.74,14,3,14,0.00
2013-5-6,81,61,36,36,28,18,71,32,12,29.76,29.62,11,2,11,0.00
2013-5-7,87,63,41,43,36,27,80,43,14,29.64,29.48,8,2,8,0.00
2013-5-8,71,57,46,44,41,33,78,56,34,29.81,29.54,18,8,18,0.00
2013-5-9,69,54,35,33,24,17,65,37,14,29.89,29.78,17,8,17,0.00
2013-5-10,74,64,48,39,24,16,34,21,17,29.87,29.63,32,11,32,0.04
2013-5-11,63,50,36,27,19,8,66,31,16,30.03,29.85,15,8,15,0.04
2013-5-12,80,55,29,26,20,12,59,29,11,29.86,29.52,10,3,10,0.00
2013-5-13,94,75,58,46,36,24,41,26,12,29.52,29.28,26,6,26,0.00
2013-5-14,78,69,59,57,43,30,84,41,21,29.49,29.15,32,8,32,0.02
2013-5-15,84,68,53,43,35,24,60,34,12,29.55,29.48,18,5,18,0.00
2013-5-18,76,63,57,60,58,55,99,87,47,29.46,29.38,14,5,14,1.51
2013-5-19,60,55,51,60,54,51,99,97,93,29.40,29.17,23,12,23,0.98
2013-5-20,57,52,48,57,51,47,99,95,87,29.36,29.20,26,14,26,0.27
2013-5-21,50,46,43,48,44,42,99,94,87,31.65,29.36,24,12,25,0.02
2013-5-22,71,58,47,48,39,22,90,55,17,29.78,29.58,22,9,22,0.00
2013-5-23,74,60,48,48,44,36,88,58,26,29.89,29.75,16,8,16,0.00
2013-5-24,68,57,51,54,46,35,83,66,52,29.78,29.59,100,7,100,0.00
2013-5-25,74,60,49,61,55,48,99,86,58,29.71,29.58,24,6,24,0.37
2013-5-26,80,62,52,62,56,51,99,82,51,29.65,29.45,25,6,25,0.06
2013-5-27,62,56,52,58,54,51,99,94,81,29.60,29.32,12,4,12,0.24
2013-5-28,85,66,52,56,54,50,99,69,33,29.35,29.28,14,2,14,0.00
2013-5-29,82,66,56,59,55,49,89,69,39,29.33,29.19,14,5,14,0.00
2013-5-30,82,64,58,64,60,57,99,87,45,29.21,28.97,20,9,20,1.72
2013-5-31,65,57,49,60,54,47,96,91,83,29.45,28.98,23,11,23,0.07